Wind_Speed
14 16 19 22 23 25 23 17 10 6 9 10 7 4 3 1 4 10 17 22 27 30 26 23 27 36 39 38 37 36 30 23 24 26 25 26 26 27 27 26 24 21 17 15 14 14 14 14 14 12 13 13 14 15 15 14 14 13 13 13 14 15 14 14 13 13 13 13 13 13 14 14 14 14 13 13 13 12 12 11 11 10 10 9 9 9
12 15 18 20 20 23 22 17 12 10 11 11 8 3 3 3 5 10 14 18 24 26 24 25 31 39 42 41 39 38 34 28 27 27 25 25 23 24 28 25 24 22 18 16 15 15 14 13 14 14 13 13 13 14 14 14 14 14 14 14 14 14 14 14 14 13 13 12 11 11 12 12 12 13 13 13 13 12 11 11 10 10 10 10 10 9
12 14 14 16 17 19 20 16 12 12 13 12 6 3 2 4 6 10 12 15 21 22 22 26 33 39 41 39 37 37 38 34 31 30 26 24 21 22 27 25 25 25 20 18 17 16 16 13 13 14 13 13 13 13 14 15 15 15 15 15 14 14 15 15 14 13 13 12 11 11 11 11 11 12 12 13 13 12 11 10 10 10 10 10 10 9
12 9 9 16 18 19 18 13 11 14 16 13 8 4 3 3 4 9 13 15 20 21 21 26 32 36 38 37 37 36 38 36 34 33 29 26 21 19 24 25 26 27 22 19 18 17 17 14 13 14 13 14 14 14 14 14 14 14 14 14 14 14 14 14 14 14 13 13 13 12 11 11 11 11 11 12 12 12 10 10 9 9 9 9 9 9
10 7 8 15 18 19 17 12 13 17 19 15 11 6 3 4 2 7 13 16 23 23 22 25 27 32 36 37 39 38 36 35 33 33 32 28 23 18 20 25 27 26 23 21 20 18 16 15 15 15 14 14 15 15 14 13 13 13 13 13 13 13 14 14 14 14 13 13 13 12 11 11 11 11 11 11 11 11 10 9 9 9 9 9 9 8
10 6 5 12 16 17 15 13 16 19 21 17 9 4 1 2 2 6 12 18 24 22 24 27 19 21 32 35 39 40 36 34 32 31 32 29 26 21 19 25 27 25 24 22 21 18 15 15 16 16 16 15 15 15 14 13 12 12 12 12 12 12 13 13 13 13 13 13 12 11 11 10 9 10 11 11 10 10 10 9 9 8 8 8 8 8
14 6 7 11 13 16 15 15 15 17 21 16 7 5 2 2 3 5 12 19 24 21 25 30 17 12 25 33 38 41 37 35 34 33 34 33 29 24 22 24 26 25 25 24 22 19 16 15 17 18 17 15 15 15 15 14 13 12 12 12 12 12 12 12 12 12 13 13 12 12 12 10 9 10 10 11 10 10 10 10 9 8 8 8 7 7
14 10 10 11 13 17 17 15 11 12 16 11 6 6 4 4 5 5 13 19 23 21 22 28 22 11 18 31 37 41 39 37 38 35 34 34 31 26 24 24 25 25 24 24 22 19 17 16 17 18 17 15 15 15 16 16 14 13 13 12 12 12 12 11 11 11 11 12 12 12 12 10 10 10 10 10 9 9 9 9 9 8 8 8 8 7
12 12 11 11 13 17 19 16 12 13 11 8 8 8 7 6 7 10 15 16 17 18 17 23 25 11 11 27 34 39 42 41 42 39 34 34 33 29 27 26 26 25 22 22 22 20 18 16 17 18 17 16 16 16 16 16 16 14 14 14 12 12 12 11 10 10 10 11 10 10 10 10 9 10 10 10 9 9 9 9 9 8 8 8 8 7
11 13 12 13 12 13 16 15 17 17 12 11 12 11 10 10 10 12 14 13 12 12 8 15 23 11 7 24 35 39 44 44 44 41 35 34 33 31 30 28 27 26 23 22 22 21 19 16 16 17 17 18 17 16 16 16 17 16 16 15 14 13 12 11 11 11 10 10 9 9 9 10 9 9 9 10 10 9 9 9 9 9 8 7 7 7
9 9 11 13 8 6 9 13 21 21 15 14 15 13 14 13 10 11 14 14 10 6 6 9 16 12 5 16 33 39 40 40 42 43 39 37 35 33 31 29 29 28 25 23 23 23 21 17 16 17 18 19 18 18 17 17 17 17 17 16 15 14 13 11 11 11 11 10 10 9 9 9 9 9 10 10 9 9 9 9 9 9 8 7 7 7
7 8 11 11 7 3 7 18 23 21 19 17 17 16 15 13 10 7 9 10 4 2 7 9 14 17 11 12 23 30 31 32 37 43 44 42 40 37 34 31 30 30 27 25 25 25 23 20 19 19 19 20 20 20 19 18 18 17 17 17 16 16 14 13 12 11 11 11 11 11 10 9 10 10 10 10 10 8 7 8 8 8 8 7 6 6
5 6 8 9 9 8 12 22 24 20 20 17 17 19 13 8 4 2 2 3 1 2 4 6 11 15 18 18 17 21 26 29 32 36 39 43 43 39 36 33 31 31 29 26 26 27 25 23 21 20 20 21 22 21 19 19 19 18 17 17 16 16 15 14 13 12 12 11 12 11 10 10 11 11 10 10 10 8 8 7 8 8 7 7 6 6
3 3 6 7 10 13 14 20 26 25 22 16 15 18 13 6 2 1 2 1 1 4 4 6 9 10 16 20 19 20 24 27 31 33 32 37 40 38 38 36 33 33 31 28 28 29 27 24 22 21 21 21 21 21 20 20 20 19 18 17 17 16 16 15 14 13 12 12 12 11 11 11 11 10 10 10 9 9 8 8 8 7 7 6 6 6
5 2 6 7 8 14 14 17 19 18 19 15 8 8 13 13 6 3 5 3 3 4 5 7 7 7 9 11 15 21 22 23 28 34 34 33 34 35 38 38 36 34 33 31 30 30 28 26 24 22 21 21 21 21 20 20 21 20 19 18 17 17 16 15 15 14 13 12 12 12 11 11 10 9 10 10 9 8 8 8 7 6 6 6 6 6
4 5 7 10 10 13 13 14 17 17 18 16 10 7 13 16 11 6 7 8 8 6 5 7 7 8 10 9 10 13 18 19 21 29 37 36 34 34 37 40 40 37 36 34 32 32 31 28 26 24 23 21 21 21 20 20 21 20 18 18 17 17 16 15 15 14 14 13 12 11 11 10 9 9 9 9 9 8 8 8 7 6 6 6 6 6
8 7 6 10 12 13 10 11 18 19 16 18 20 16 12 12 13 10 8 7 8 5 3 7 8 10 10 11 11 11 15 17 17 22 31 36 36 35 36 39 42 41 39 36 35 34 33 31 28 26 24 23 23 22 20 20 21 20 18 18 18 17 17 16 16 15 15 14 13 11 11 10 9 8 9 9 9 9 9 8 7 7 7 7 6 6
13 10 3 3 8 13 12 12 17 18 15 18 22 19 12 10 13 10 6 4 4 2 2 7 10 12 9 7 8 13 17 18 19 20 24 28 33 35 37 38 40 42 41 38 36 36 35 33 30 28 27 25 24 22 19 19 20 20 19 18 17 17 16 16 16 16 16 15 14 13 11 11 10 9 9 10 10 10 8 7 7 7 7 7 7 6
12 9 2 4 5 14 15 12 15 17 15 14 15 15 12 9 9 8 6 3 2 1 2 5 9 12 13 11 7 10 18 19 19 20 22 24 27 31 36 39 40 41 42 40 38 37 36 34 33 31 30 27 25 23 20 18 19 20 20 18 17 17 16 15 16 16 17 17 15 14 13 12 11 10 10 10 10 9 8 7 7 7 7 7 7 6
10 7 4 4 1 11 15 13 13 15 15 16 13 11 11 9 9 9 8 6 5 3 1 2 4 7 11 12 7 7 16 20 19 19 20 22 23 25 31 37 40 41 43 43 40 39 38 35 33 33 32 30 27 25 23 19 19 20 20 19 18 18 17 16 16 16 17 17 16 16 15 14 13 12 12 11 11 10 9 8 8 8 7 7 7 6
7 7 9 3 4 5 5 6 8 10 12 17 16 10 9 10 11 9 8 8 7 5 3 1 2 5 7 7 6 8 14 18 19 18 19 20 21 22 23 29 37 41 43 44 43 40 38 36 34 34 34 32 29 26 25 22 20 21 21 19 18 19 19 18 17 16 16 17 17 16 16 16 15 14 14 13 12 11 11 10 9 9 8 7 7 7
8 11 14 8 3 2 3 4 3 7 5 8 13 10 7 9 14 11 7 8 9 6 6 5 2 4 4 4 6 9 14 17 18 19 19 19 18 17 16 19 28 38 41 43 43 42 39 37 35 35 34 33 30 28 27 24 23 23 23 22 20 19 19 19 17 17 16 17 17 17 16 16 16 16 15 14 14 13 12 11 11 10 9 8 8 8
9 10 12 11 11 6 4 3 4 8 4 2 7 9 9 9 14 13 7 9 12 7 6 6 1 2 3 3 5 10 15 17 19 19 18 17 14 12 12 15 20 30 38 41 43 42 40 39 38 36 35 34 32 30 29 27 25 24 24 24 23 21 20 20 19 18 17 17 17 17 17 17 17 16 16 15 15 14 13 13 12 12 10 9 9 9
8 9 11 12 12 8 6 4 6 6 5 3 0 8 12 10 11 15 11 10 13 11 10 7 1 4 5 3 5 10 14 17 19 19 17 15 13 10 12 13 14 20 29 37 43 44 43 42 40 38 37 36 33 31 29 28 27 25 24 24 24 23 21 20 19 19 19 18 18 17 17 17 17 17 16 16 16 15 15 14 13 12 12 11 10 9
8 8 11 11 7 4 4 6 4 2 2 6 12 17 16 11 8 14 13 10 14 16 16 10 5 6 8 6 8 11 13 16 18 17 15 13 13 12 12 11 11 14 18 25 35 43 45 44 40 38 38 36 34 32 30 28 27 25 25 24 24 23 22 21 21 20 20 20 19 19 18 17 17 16 16 15 15 15 15 15 14 13 13 12 12 12
10 8 7 8 5 3 3 6 9 12 14 16 17 15 15 13 10 11 9 11 15 17 21 17 11 9 11 12 12 13 15 17 16 16 15 14 14 13 11 11 11 11 11 13 20 29 38 42 42 41 41 39 36 34 33 31 28 26 25 24 24 24 23 22 21 21 21 21 21 20 19 18 17 16 16 15 14 15 15 15 15 15 14 14 14 15
8 6 3 4 5 6 7 9 13 15 13 15 13 12 15 14 10 8 6 11 15 17 22 23 17 11 13 17 15 15 15 15 14 14 14 14 14 12 11 11 10 9 11 13 14 18 26 35 42 43 44 43 40 38 35 32 29 27 26 25 24 25 25 24 24 23 22 21 21 20 19 18 17 17 16 15 15 15 16 16 16 16 15 15 15 15
7 4 1 0 5 10 10 8 10 11 9 10 11 11 12 13 11 5 1 8 15 17 20 24 20 13 15 18 16 15 14 13 13 12 11 12 11 10 10 10 9 10 13 14 14 15 19 27 37 43 43 43 43 42 39 36 34 33 32 31 29 28 29 28 27 25 23 21 20 20 20 20 19 18 18 17 17 17 17 17 17 16 15 15 15 15
6 5 3 2 4 7 7 5 7 9 6 6 8 7 9 13 14 9 2 7 16 16 15 21 20 13 15 18 16 13 13 12 12 12 11 11 9 9 10 8 7 9 11 10 11 14 15 17 25 34 39 40 40 40 40 39 40 39 36 35 32 29 28 27 24 23 23 22 21 20 20 19 19 19 19 19 18 18 18 18 18 18 17 16 16 16
6 5 6 6 5 6 5 1 3 9 7 5 7 6 7 10 13 12 5 8 16 13 10 17 18 13 16 18 16 14 13 12 11 11 11 11 10 10 9 8 7 6 7 8 10 12 12 12 16 24 32 37 38 37 35 35 36 33 31 31 28 24 23 21 21 22 23 21 19 19 19 18 18 18 18 18 18 18 18 18 19 19 18 17 17 16
6 6 7 7 5 6 3 4 1 7 8 7 7 6 6 7 8 9 4 6 11 10 12 18 19 17 17 17 16 15 14 12 12 11 11 11 11 11 10 9 8 6 5 6 6 7 8 8 12 18 24 30 33 33 32 31 29 27 27 26 22 20 19 18 20 23 23 20 17 17 17 17 17 17 17 17 18 17 17 17 18 19 18 18 17 17
7 7 8 8 7 6 3 3 1 7 8 6 9 9 9 7 5 6 3 7 14 18 19 19 20 20 18 16 15 16 15 14 13 11 10 11 10 9 9 9 8 7 6 4 5 8 8 6 9 13 16 23 28 29 28 26 24 24 23 21 18 18 18 18 19 21 20 19 17 16 16 17 17 17 17 18 18 18 18 18 18 19 19 19 19 19
8 8 8 8 6 5 3 1 2 4 5 4 8 11 10 6 4 4 2 6 13 19 19 18 18 19 17 15 15 15 14 13 11 8 8 9 7 5 6 7 8 9 7 5 7 10 10 9 10 12 14 16 19 20 20 20 21 23 22 20 20 19 17 17 19 19 18 18 18 17 17 17 17 17 17 18 18 19 20 20 20 20 21 22 22 21
7 7 7 6 5 5 6 4 1 1 0 2 5 6 7 6 3 1 3 5 7 10 13 14 15 16 15 15 15 14 13 11 9 7 7 8 8 7 7 7 10 11 10 9 9 10 11 11 12 13 14 15 15 16 18 20 24 25 24 23 22 20 17 17 19 19 17 16 17 20 21 19 17 17 17 17 18 20 21 22 22 23 23 24 24 23
6 6 6 4 4 6 6 3 1 2 6 6 4 3 5 5 3 1 5 7 6 8 9 11 14 15 14 14 13 11 11 10 8 8 9 10 11 11 10 10 12 14 13 12 11 11 12 12 12 13 15 16 17 18 21 25 26 25 24 23 23 21 19 18 20 22 20 17 18 21 21 18 17 18 18 19 20 21 23 25 26 26 25 25 26 26
6 5 4 5 5 5 4 2 2 6 10 10 8 9 8 5 2 3 7 9 7 7 9 10 11 11 11 12 12 10 9 7 6 8 11 12 13 14 14 14 14 13 11 10 10 10 11 12 12 12 13 15 16 17 20 23 23 22 22 22 22 20 17 18 20 21 20 19 19 19 19 18 18 19 20 20 20 21 24 27 28 28 27 28 28 29
6 5 4 5 5 3 1 5 9 10 10 10 11 12 13 10 6 4 8 11 9 7 10 10 9 7 7 8 9 8 6 6 6 8 11 13 13 12 11 12 12 9 8 8 8 8 10 10 10 11 12 14 14 15 18 18 17 16 16 16 15 14 13 13 14 13 13 14 15 16 17 18 19 20 21 20 20 20 21 23 23 23 26 28 29 30
8 8 9 8 4 4 3 7 10 7 7 10 11 10 11 11 8 4 5 9 10 7 8 8 7 7 7 4 3 4 5 6 8 9 12 13 12 10 9 9 8 8 8 8 9 10 9 8 7 9 10 11 12 12 13 13 12 11 10 11 12 12 13 13 13 12 12 13 14 15 17 19 21 22 23 22 22 21 20 19 18 19 21 23 25 27
9 8 9 9 5 5 6 6 7 7 8 12 13 11 9 9 8 3 2 5 8 8 6 7 9 10 10 7 6 7 8 7 8 9 11 11 7 4 5 7 8 8 8 8 9 9 8 8 8 8 8 9 9 10 10 11 11 11 12 12 12 12 13 14 15 16 16 17 18 19 19 20 22 22 23 22 23 23 22 21 19 19 20 21 23 25
9 8 8 7 5 6 7 7 8 8 9 13 14 12 11 9 9 6 2 4 7 8 7 8 9 10 11 10 9 9 9 8 9 10 12 10 5 4 6 5 7 7 7 9 11 11 10 10 10 9 8 9 10 11 11 12 12 14 15 14 14 14 14 16 18 19 20 20 20 20 20 21 21 21 22 22 23 24 24 23 22 20 20 22 23 24
8 8 8 7 5 7 8 7 7 7 8 11 13 13 13 11 8 8 6 6 8 8 8 9 8 7 7 6 6 7 10 10 10 10 10 9 7 8 10 9 8 8 9 9 10 11 11 11 10 9 9 10 12 12 13 13 14 15 16 16 16 16 16 17 18 19 20 20 20 19 19 19 19 20 21 21 22 23 23 23 23 22 22 21 21 21
8 7 7 7 6 7 9 8 6 7 8 9 9 11 13 11 9 9 10 11 12 10 9 10 10 8 6 6 6 7 9 12 12 11 11 10 8 9 11 11 10 10 10 8 6 6 7 8 9 9 9 9 10 11 12 12 12 13 14 14 15 15 15 16 16 16 16 16 15 14 13 13 14 16 18 19 20 21 22 22 22 22 23 22 21 21
8 7 6 8 8 9 11 10 6 5 9 10 8 10 11 10 10 12 13 15 16 13 10 11 13 12 10 11 12 11 12 13 13 12 12 10 8 8 9 9 9 9 7 5 4 4 5 7 8 9 9 9 9 10 10 11 11 12 12 12 12 12 11 11 11 11 11 11 10 8 7 7 9 10 12 15 16 18 20 20 20 20 21 21 21 22
8 7 7 9 10 10 12 12 7 7 12 13 10 9 9 9 12 14 13 13 14 12 9 9 10 12 12 13 14 15 16 15 14 14 12 10 9 8 7 7 7 6 6 6 6 6 5 6 6 7 7 6 6 6 6 7 7 7 7 8 8 7 6 5 5 5 6 6 7 7 7 7 8 9 10 12 12 13 14 15 16 17 19 20 21 21
6 6 5 7 9 8 9 11 8 8 12 12 8 7 8 11 15 15 13 11 11 9 8 7 7 9 11 9 9 10 11 12 12 11 11 10 9 8 8 8 8 7 7 7 7 7 6 5 4 3 3 2 2 2 2 2 2 3 3 4 4 4 3 3 2 2 3 4 5 6 8 9 10 10 11 11 10 11 12 13 15 16 16 18 19 19
4 5 5 7 10 9 9 10 7 8 11 11 8 8 9 12 15 14 12 12 11 9 8 7 7 8 9 7 6 6 6 7 8 8 8 8 8 8 9 8 7 7 6 6 6 6 6 5 4 3 2 2 1 1 1 1 0 0 1 1 1 1 1 2 2 2 3 3 4 4 5 6 7 7 8 9 9 10 11 12 14 15 16 16 17 17
5 5 4 8 12 11 13 13 10 10 12 12 10 10 10 11 13 12 11 12 12 11 10 9 8 8 8 8 8 6 5 6 6 6 7 7 7 7 7 7 7 7 6 4 4 4 4 4 4 3 3 3 3 3 3 2 2 2 2 1 1 1 1 1 2 3 4 5 5 4 4 3 4 4 4 5 6 7 8 9 11 13 13 13 14 15
8 6 4 7 9 9 12 15 13 12 12 11 10 10 11 12 12 12 12 12 12 12 12 12 10 9 8 8 7 6 6 6 6 6 6 6 6 6 5 5 6 6 6 4 2 2 2 1 1 2 3 3 4 5 4 4 3 3 3 2 2 2 2 2 3 4 5 6 6 6 6 5 5 5 6 6 7 8 8 8 9 9 10 10 10 11
9 8 6 8 10 11 14 17 16 15 15 12 10 11 12 12 12 12 12 12 12 11 11 11 11 10 9 8 7 6 6 5 5 6 5 4 4 5 5 5 5 5 6 4 1 0 0 1 2 3 3 4 5 5 6 6 5 5 4 4 3 3 3 4 5 5 5 6 8 8 8 8 8 8 9 9 10 11 11 10 10 10 10 10 10 10
10 10 9 9 9 11 14 15 15 15 16 14 11 10 11 10 9 9 10 10 10 10 10 10 10 10 10 9 8 7 6 5 4 5 5 4 4 4 4 5 4 4 5 5 4 3 3 3 4 5 5 6 6 6 6 7 7 7 7 7 6 6 5 5 6 6 6 7 8 8 8 9 9 10 10 10 11 11 12 12 12 12 12 12 12 12
9 8 7 6 4 6 9 10 10 10 12 12 10 9 9 9 9 9 9 8 8 9 10 10 10 10 10 9 9 8 7 6 6 5 5 5 5 4 4 4 4 4 5 5 6 6 6 6 7 8 8 8 8 8 8 8 8 8 8 9 9 9 9 8 8 9 8 8 9 9 9 9 10 10 10 10 10 11 11 11 11 12 13 13 13 13
Wind_Direction
181 192 207 207 200 194 193 200 211 223 237 235 207 154 60 57 190 194 193 187 183 180 179 182 178 170 169 172 175 172 175 184 180 181 185 183 185 187 183 183 191 192 189 203 203 177 161 158 162 165 165 168 168 169 169 165 166 167 170 171 168 167 165 167 171 166 162 160 156 152 150 152 151 150 151 149 146 145 143 138 133 132 130 128 128 126
194 206 209 206 198 194 199 204 211 231 228 210 195 163 103 120 169 181 191 191 182 175 174 181 180 173 173 178 178 170 171 183 187 188 193 194 195 191 185 186 190 190 192 201 202 193 183 167 167 172 169 168 167 168 166 162 166 167 170 175 175 173 171 172 174 170 166 161 156 156 155 157 156 155 155 151 150 150 147 144 141 138 136 136 137 135
209 219 211 197 188 191 197 198 213 238 221 201 205 204 143 147 165 173 185 194 186 178 178 183 182 178 177 181 179 172 171 179 188 194 201 203 204 196 187 187 188 188 196 200 199 202 199 183 175 176 173 169 165 166 167 164 167 167 168 174 175 176 176 175 174 172 169 162 160 165 165 163 162 161 159 155 153 153 150 148 147 143 140 140 140 139
212 213 196 183 178 188 195 198 228 234 214 212 227 226 170 146 177 189 187 193 192 190 189 186 183 183 182 181 180 177 175 178 185 194 202 206 212 208 192 188 188 191 199 202 200 204 204 195 185 180 178 175 169 170 173 170 168 168 169 170 171 173 175 176 175 174 173 168 169 176 173 166 165 166 165 161 157 155 153 153 151 147 145 144 143 143
199 139 162 181 178 187 194 208 232 221 208 216 230 237 196 151 189 210 195 190 191 196 199 188 183 187 186 183 183 182 179 179 184 191 198 204 211 217 201 190 191 194 201 207 203 203 204 196 189 184 182 180 177 175 176 175 170 171 171 169 169 168 169 175 175 174 175 172 174 181 177 168 167 167 168 167 161 157 157 158 157 155 154 152 148 146
214 136 179 196 184 188 197 216 229 222 212 209 208 208 170 108 104 202 198 187 184 191 196 188 183 190 192 189 186 185 184 182 184 189 196 199 202 211 206 194 194 197 204 213 210 207 206 195 189 187 183 183 182 178 178 177 175 176 174 170 170 167 169 174 173 171 169 166 169 175 173 172 170 166 168 169 165 161 162 164 165 164 163 160 155 151
234 219 232 223 205 197 202 221 233 228 214 200 183 168 138 72 105 186 198 186 185 190 190 189 187 181 189 192 190 188 187 185 187 190 194 197 199 205 208 199 198 201 207 214 214 214 214 199 190 188 186 186 184 181 181 180 179 181 178 175 171 167 173 179 175 173 170 164 165 170 171 173 171 167 168 169 168 166 166 169 170 169 169 168 164 161
240 233 231 234 229 213 215 229 226 214 206 188 163 157 113 71 102 170 194 187 191 190 180 185 192 186 188 195 194 193 190 188 191 190 189 195 198 201 205 202 202 207 211 215 215 217 218 203 189 187 187 189 188 187 187 183 183 184 182 182 175 169 179 185 182 182 179 173 171 175 178 175 170 168 169 169 171 169 168 170 171 171 174 174 173 170
231 233 223 220 230 223 226 225 186 184 199 170 151 150 116 103 135 171 186 185 185 177 165 177 186 190 199 198 198 198 196 193 193 191 187 190 195 199 201 201 203 210 217 221 219 219 220 206 190 185 185 191 194 194 194 188 185 186 185 187 182 177 184 188 187 188 187 184 181 183 186 182 176 173 171 173 175 174 172 171 172 175 179 177 175 176
230 239 230 220 225 223 232 224 191 193 199 158 148 148 126 117 140 163 171 166 160 162 170 183 183 184 202 199 200 201 200 198 195 191 188 190 195 200 201 200 202 208 219 228 227 225 225 214 196 186 187 193 196 197 198 195 191 188 187 190 187 183 188 188 189 191 189 189 187 186 187 183 180 179 176 176 179 183 181 176 174 177 182 178 174 180
236 240 230 223 227 234 240 213 198 209 206 170 160 150 124 113 130 155 161 153 139 157 199 204 199 206 224 202 204 205 202 201 201 196 191 191 195 200 202 201 200 204 214 224 228 229 230 223 206 195 192 194 197 199 199 197 196 193 189 191 190 188 190 190 192 194 189 187 186 187 188 183 182 186 186 184 188 192 188 182 179 177 178 177 173 177
242 248 230 225 230 220 183 178 190 213 210 187 173 153 124 114 129 142 155 152 124 184 197 209 216 218 229 215 209 212 209 206 207 203 197 195 196 199 201 201 200 203 210 219 225 227 229 227 213 201 196 195 198 201 199 196 198 198 193 192 192 191 192 191 192 195 193 189 187 187 190 187 186 191 193 191 191 193 187 183 185 179 176 179 177 177
256 252 225 227 224 190 164 165 170 185 191 182 168 156 131 109 128 128 166 176 184 202 190 204 208 215 232 230 214 214 215 214 212 208 204 202 201 200 198 200 201 202 208 216 221 224 225 226 217 204 199 199 201 203 200 197 199 200 196 195 195 193 193 192 191 193 193 193 191 189 190 190 189 193 196 193 189 189 188 185 190 187 179 181 183 181
321 242 206 223 215 190 173 164 160 163 171 171 167 164 151 127 112 147 203 254 230 212 216 200 192 210 237 236 223 215 215 219 219 215 210 208 207 203 197 198 202 203 207 212 217 222 224 224 221 211 205 205 206 206 201 198 200 200 197 196 197 195 195 194 192 191 190 193 195 192 191 194 195 196 197 195 192 190 191 191 196 196 187 186 188 185
9 272 213 220 212 199 194 177 174 177 175 181 200 193 178 177 184 190 190 184 136 174 197 184 188 211 227 233 229 223 221 225 223 217 213 211 211 208 201 198 201 204 208 211 215 221 224 224 224 218 213 211 210 208 204 200 200 201 197 195 197 198 197 196 195 194 189 191 196 193 193 198 199 199 198 196 195 194 195 195 199 203 200 198 192 187
343 286 229 228 218 204 202 184 181 187 182 187 202 195 186 194 199 166 164 180 153 131 172 184 201 226 231 245 244 229 224 223 218 213 212 212 212 211 207 203 204 207 209 211 213 219 224 225 225 223 219 216 215 212 206 201 201 202 197 192 195 199 200 199 199 197 193 193 197 196 197 201 203 202 200 198 195 195 198 198 197 203 208 206 199 194
333 289 234 236 222 200 210 200 184 185 187 187 190 193 195 208 204 162 133 164 152 123 189 201 229 246 250 259 247 224 216 211 207 205 208 212 213 213 211 208 208 210 212 212 213 217 222 224 224 224 222 220 220 216 206 199 199 200 198 193 193 198 201 201 201 200 199 198 199 199 200 204 204 199 196 197 194 192 194 194 193 198 204 202 197 194
341 296 234 270 243 216 229 233 203 196 196 190 196 208 206 203 209 182 129 131 131 81 234 217 243 253 250 257 237 217 212 205 202 203 203 206 211 214 215 213 211 212 213 214 214 216 220 223 223 224 224 223 223 220 208 195 192 196 200 197 195 198 200 201 202 203 204 202 200 202 203 205 204 197 193 193 193 192 191 191 193 199 202 198 189 186
347 306 248 17 279 221 219 227 213 207 213 213 214 220 205 186 196 184 155 147 141 90 268 238 252 254 242 238 234 215 211 208 208 207 203 203 207 211 214 213 212 211 213 214 214 215 218 222 223 222 223 224 225 223 214 198 189 194 201 201 198 199 201 203 204 204 205 205 202 202 204 205 204 199 196 195 194 194 191 190 198 203 204 199 188 186
348 317 292 9 318 209 206 209 212 211 217 223 222 226 226 214 201 189 176 162 156 157 265 265 266 264 246 235 240 220 206 209 217 215 210 209 208 210 211 212 210 208 210 213 215 215 217 220 222 222 224 225 224 223 219 206 194 194 201 203 199 197 201 205 205 205 205 205 203 202 203 206 205 202 200 199 197 197 195 196 202 205 204 202 193 189
328 323 316 313 155 182 193 192 221 227 225 226 226 239 245 216 191 187 190 178 166 163 160 154 276 267 244 226 229 210 195 201 211 216 218 215 212 213 210 209 209 208 209 213 215 216 217 218 218 219 222 225 225 223 221 213 201 196 201 205 203 200 202 206 207 206 205 205 205 204 204 206 207 205 204 203 199 198 199 200 203 206 206 205 200 196
320 334 328 304 267 341 82 96 246 245 251 245 238 251 259 210 185 178 191 198 189 178 166 164 252 262 229 224 215 193 191 196 201 211 223 224 221 221 215 208 208 209 210 214 216 218 218 217 216 216 219 222 222 220 218 214 207 201 200 203 206 205 205 206 208 209 207 206 207 207 206 208 211 209 207 207 206 204 204 204 205 208 207 207 209 209
323 329 319 297 298 294 166 90 313 262 263 244 228 254 285 259 217 199 194 196 190 180 165 162 214 244 210 245 213 189 197 202 201 212 227 234 234 228 223 218 210 209 211 213 217 220 221 219 215 215 218 220 221 219 215 213 210 205 201 203 207 209 208 207 207 209 210 209 208 209 210 210 212 213 211 211 211 211 210 210 211 211 210 211 215 218
322 327 320 304 295 272 220 268 291 244 204 162 279 330 335 317 252 234 238 215 186 173 166 153 199 216 185 209 207 191 200 206 208 216 226 236 239 230 227 226 215 213 213 215 218 220 221 220 215 214 217 220 221 220 216 213 212 209 205 205 208 210 211 209 207 209 212 212 209 209 210 212 212 215 216 215 215 216 216 216 216 217 215 215 218 223
325 328 339 341 328 303 268 271 268 160 85 24 3 348 345 343 282 256 253 217 190 190 189 184 208 197 166 173 195 187 192 200 208 216 220 228 233 231 233 233 223 220 221 223 225 224 221 219 215 215 220 222 221 219 217 216 216 214 209 207 209 212 213 211 210 211 212 212 212 210 210 211 213 216 219 219 219 221 223 223 222 223 222 221 222 225
319 308 342 19 30 359 324 320 335 344 353 9 10 351 348 354 320 282 246 200 196 198 195 199 211 194 170 178 187 183 189 199 208 220 227 230 229 229 234 238 233 231 239 245 240 235 232 226 218 214 216 219 220 220 220 219 218 218 214 208 209 214 216 215 213 213 213 213 213 212 211 212 213 216 219 220 221 223 227 229 229 228 228 228 230 231
328 304 319 36 21 351 340 342 347 348 4 25 14 343 349 359 337 301 246 218 214 197 196 210 222 216 194 188 186 183 188 196 206 219 232 234 229 227 233 242 246 253 270 274 263 255 249 238 227 220 215 213 215 217 219 221 222 222 218 212 210 212 215 215 213 211 210 213 215 214 213 213 214 216 219 221 224 226 228 232 233 231 231 233 239 243
336 330 218 30 351 350 344 347 8 21 34 24 351 325 336 350 349 348 284 238 221 197 194 207 218 227 211 194 187 187 185 188 198 210 222 225 221 221 227 236 238 243 260 275 276 267 255 239 230 226 220 215 213 211 211 214 217 218 215 212 211 211 210 210 211 208 203 207 215 215 214 214 213 215 218 222 227 228 229 233 236 236 235 236 240 246
309 332 352 323 320 344 341 328 15 30 18 348 349 338 331 345 356 358 354 197 201 203 198 195 201 214 203 188 185 189 189 195 202 208 213 212 208 211 216 216 218 229 242 262 276 270 255 239 229 225 223 222 220 216 212 211 214 215 214 213 214 214 212 209 210 210 205 203 207 212 217 219 217 216 218 222 227 230 231 234 237 238 239 241 241 244
275 295 335 332 320 354 1 279 28 28 10 357 22 16 348 1 7 354 339 182 194 212 203 185 186 189 187 183 182 183 187 197 204 211 214 209 208 211 208 205 209 222 233 248 271 269 252 237 225 221 221 222 224 226 225 222 219 218 220 222 221 223 223 215 208 209 211 207 203 207 216 222 225 225 225 227 231 235 236 237 240 242 243 244 245 246
292 305 328 330 336 4 41 149 63 4 354 6 29 18 347 356 2 350 343 170 174 173 173 179 177 172 175 178 177 181 187 191 199 213 219 213 211 211 206 208 214 209 201 216 239 240 230 223 214 215 219 223 227 230 229 229 227 226 228 230 227 229 235 230 218 214 215 213 210 209 212 218 226 230 231 232 234 237 238 239 243 247 249 249 249 249
305 312 319 326 343 1 46 129 342 311 301 337 19 19 359 349 357 4 38 130 138 144 159 169 162 158 167 172 174 182 188 192 200 210 211 206 206 208 209 217 220 202 176 171 177 177 175 173 183 194 208 223 231 229 223 223 228 231 233 231 226 229 235 235 231 227 224 222 224 222 218 220 228 233 234 236 238 241 240 237 239 244 248 250 251 252
292 297 306 311 326 344 340 308 324 297 279 331 31 36 26 23 28 15 44 120 134 145 153 155 152 155 163 167 174 185 190 192 198 200 196 194 192 198 210 216 214 201 183 169 168 165 161 159 163 169 182 202 217 218 213 217 225 229 231 230 226 228 233 234 234 237 235 231 231 231 229 231 237 241 241 240 243 247 246 241 239 240 244 248 251 252
283 293 303 305 313 325 316 305 346 35 58 53 54 53 46 50 58 213 181 147 145 151 145 143 151 158 165 171 179 189 192 190 194 199 198 196 192 194 200 200 200 200 193 183 175 167 164 164 160 158 162 173 187 195 202 215 223 224 226 228 229 231 231 229 232 235 235 233 231 231 235 239 242 244 245 246 251 255 255 254 251 247 246 247 249 252
300 297 288 291 307 311 309 319 29 113 122 110 112 126 95 70 58 151 156 153 175 184 162 152 158 162 171 179 179 184 189 187 188 191 190 193 198 200 197 193 192 192 191 190 187 182 179 179 174 167 167 175 186 197 206 214 220 223 224 227 231 233 229 226 231 233 230 228 230 234 240 244 247 250 252 255 259 260 259 256 253 251 251 248 247 250
305 292 264 273 288 294 304 343 112 139 135 136 153 151 133 124 146 163 150 145 160 189 190 185 179 171 170 173 173 177 187 184 178 178 178 186 203 206 198 197 201 198 193 194 196 195 192 193 193 188 189 195 201 212 220 222 223 226 228 228 230 230 226 226 233 237 233 230 232 237 243 245 247 251 253 258 263 264 261 256 248 246 248 249 248 249
289 292 279 281 276 265 187 122 136 147 154 164 166 150 134 124 116 137 148 140 144 183 202 205 208 208 199 182 171 173 184 182 170 173 177 184 203 211 198 197 206 199 184 185 191 198 202 200 197 197 203 210 215 225 234 235 234 233 232 231 232 236 235 230 231 238 240 236 236 241 244 245 246 248 251 258 264 265 265 263 255 248 247 249 250 251
263 271 270 272 264 230 187 138 139 157 184 185 179 163 143 122 101 103 135 133 141 169 193 195 197 207 211 204 176 163 173 181 179 182 186 188 201 206 190 193 205 186 172 179 181 188 201 202 195 199 208 214 220 226 232 236 239 237 236 238 241 248 250 243 235 236 241 246 249 249 248 248 249 251 253 257 259 259 261 264 262 257 253 253 253 253
238 246 251 260 254 223 212 187 179 190 186 185 190 189 172 141 126 137 105 109 135 151 158 160 163 169 168 159 160 164 163 178 187 178 173 177 191 197 180 202 211 185 174 188 182 178 192 202 206 212 212 215 222 226 227 228 231 234 239 242 243 247 251 249 246 247 253 260 261 257 252 249 249 251 253 253 252 254 259 263 264 263 260 257 253 251
221 217 222 241 242 221 223 224 219 210 192 193 199 199 189 167 150 162 158 103 131 148 152 148 155 172 170 150 142 146 152 177 186 164 156 162 162 105 104 156 188 170 163 180 175 167 176 192 204 211 213 220 228 230 230 231 233 238 244 244 243 245 249 252 254 257 261 264 263 259 256 254 251 250 251 251 252 255 259 264 266 265 262 260 256 254
200 206 216 229 226 217 221 220 223 228 216 208 208 204 198 187 170 175 170 128 121 139 156 152 150 174 182 155 133 132 134 145 151 145 148 155 150 137 133 142 161 157 153 163 163 158 163 176 189 198 204 215 225 229 232 234 236 240 243 242 242 246 251 255 257 259 260 260 260 261 261 259 254 249 246 247 250 254 258 262 263 261 260 261 261 260
188 198 218 225 208 204 210 206 218 244 231 214 210 203 198 194 185 175 153 123 113 121 138 140 135 139 146 145 155 157 138 129 126 126 134 136 138 151 157 159 166 166 163 165 161 157 164 175 186 195 200 207 215 222 229 232 235 239 241 242 245 250 255 258 259 259 258 257 256 259 262 262 257 250 245 245 248 252 256 259 260 260 258 257 258 259
206 204 209 209 199 196 198 196 208 230 205 188 183 182 181 179 176 169 148 125 118 119 122 125 122 120 120 125 134 138 132 126 123 122 128 135 142 150 156 162 172 177 178 177 167 162 165 166 173 184 192 202 210 217 225 232 238 244 248 250 251 252 253 256 257 255 253 251 251 255 262 265 260 251 245 244 246 249 254 257 258 258 256 255 257 260
220 220 211 204 199 197 197 196 206 211 191 181 176 173 166 157 161 164 153 134 125 122 123 128 125 122 124 125 126 128 126 123 122 122 123 128 131 128 128 134 141 147 154 156 159 165 160 147 149 161 172 188 203 212 221 229 232 237 241 242 242 242 240 244 252 253 251 251 252 255 260 264 265 262 255 249 247 249 253 255 254 252 252 254 258 261
219 222 220 206 201 202 201 198 200 195 186 182 177 167 160 156 158 160 158 147 135 128 128 134 134 133 134 134 135 139 137 132 131 132 132 131 130 127 119 111 108 113 124 135 146 154 154 151 156 166 172 185 203 211 216 211 198 193 199 206 213 220 226 237 257 275 276 272 267 266 265 265 266 268 268 266 263 262 260 258 256 254 254 256 260 264
204 207 215 203 194 183 170 168 168 163 163 165 164 162 164 161 155 154 155 150 145 144 145 146 149 149 146 145 151 158 155 145 143 147 149 148 152 150 136 122 117 119 123 134 145 147 153 167 183 204 237 264 288 288 278 294 347 74 112 165 183 191 225 264 291 304 306 307 301 291 284 278 275 275 274 274 274 271 268 266 264 262 262 263 265 268
161 173 202 197 187 171 152 149 153 157 157 160 162 161 161 157 148 146 154 157 157 159 158 158 163 163 160 161 165 169 168 160 152 150 150 151 155 155 143 135 135 130 120 124 140 144 151 171 190 209 237 266 291 298 300 314 326 335 346 346 310 250 250 270 293 298 300 302 302 300 298 293 288 285 282 281 282 282 283 283 280 273 270 271 272 270
166 163 173 179 176 162 149 151 159 165 164 168 170 160 158 161 157 154 158 164 165 164 163 165 168 168 169 172 171 166 165 164 156 149 151 154 151 146 143 146 147 138 121 106 98 114 124 139 207 231 249 271 286 295 305 313 319 327 331 327 304 282 268 253 250 262 272 278 280 282 284 285 286 287 291 292 292 292 291 292 293 292 291 290 288 283
191 188 176 161 156 151 152 161 172 175 172 174 176 168 165 168 167 163 162 164 165 165 167 169 170 170 174 178 175 169 167 164 155 151 156 162 154 146 151 156 152 145 139 131 124 147 117 345 309 291 292 293 293 298 304 306 309 313 311 306 295 283 277 274 272 272 271 269 268 266 267 272 278 283 287 290 291 292 291 287 286 291 295 296 296 294
201 200 192 175 166 167 170 174 180 180 176 174 173 172 170 167 164 163 164 166 168 169 169 172 175 179 180 180 181 182 179 175 172 172 175 178 174 171 176 176 171 169 171 179 194 209 231 261 275 282 289 292 294 299 301 303 306 308 308 305 299 291 285 283 282 281 279 277 276 273 270 269 272 276 280 282 282 282 283 284 284 284 286 288 289 288
199 208 209 199 193 192 185 175 169 167 163 155 151 157 159 151 146 146 149 157 167 169 168 172 179 186 190 192 194 195 194 192 194 201 211 210 202 203 215 222 225 223 218 217 220 226 236 242 248 258 266 272 279 286 291 295 296 298 301 301 298 295 294 292 289 287 284 281 282 282 282 279 279 281 283 284 282 276 273 274 275 276 277 279 281 282
Height
3157 3157 3157 3157 3159 3161 3162 3163 3164 3165 3166 3167 3168 3168 3167 3167 3167 3168 3169 3170 3172 3174 3177 3179 3180 3181 3183 3184 3185 3188 3192 3195 3196 3197 3199 3200 3202 3203 3204 3206 3206 3208 3209 3209 3209 3211 3213 3215 3217 3219 3220 3221 3222 3223 3223 3224 3225 3226 3227 3227 3228 3229 3230 3231 3231 3233 3234 3234 3235 3236 3237 3237 3237 3238 3238 3239 3239 3240 3240 3241 3241 3242 3242 3243 3243 3244
3156 3156 3155 3156 3158 3160 3162 3163 3165 3165 3166 3166 3167 3167 3167 3167 3167 3168 3170 3171 3173 3175 3176 3178 3179 3181 3182 3182 3182 3184 3189 3194 3196 3197 3198 3199 3201 3203 3204 3205 3206 3208 3209 3209 3209 3211 3212 3214 3216 3218 3220 3221 3222 3223 3224 3225 3226 3226 3227 3228 3229 3229 3230 3231 3232 3233 3234 3235 3236 3236 3237 3237 3238 3239 3239 3239 3240 3240 3241 3241 3242 3242 3243 3244 3244 3244
3155 3154 3155 3156 3158 3160 3161 3163 3164 3165 3166 3166 3166 3166 3166 3166 3167 3169 3171 3172 3173 3175 3176 3177 3179 3180 3181 3183 3185 3185 3187 3191 3195 3196 3197 3199 3200 3202 3204 3205 3206 3207 3208 3208 3209 3210 3212 3214 3215 3217 3219 3221 3222 3224 3224 3225 3226 3227 3228 3228 3229 3230 3231 3231 3232 3233 3234 3235 3236 3236 3237 3237 3238 3239 3239 3239 3240 3240 3241 3241 3242 3243 3243 3244 3245 3245
3153 3153 3154 3156 3157 3158 3160 3162 3164 3164 3165 3166 3166 3166 3165 3165 3166 3168 3170 3173 3174 3175 3176 3176 3178 3180 3181 3183 3186 3187 3187 3190 3193 3195 3197 3198 3200 3201 3203 3205 3206 3206 3207 3208 3209 3210 3211 3213 3215 3216 3218 3220 3221 3223 3224 3225 3226 3227 3228 3229 3229 3230 3231 3232 3232 3233 3234 3235 3236 3236 3237 3237 3238 3239 3239 3239 3240 3240 3241 3242 3242 3243 3243 3244 3245 3246
3151 3151 3154 3155 3156 3157 3158 3161 3163 3164 3164 3165 3165 3165 3164 3164 3165 3167 3168 3171 3173 3175 3175 3176 3179 3181 3181 3183 3185 3187 3188 3190 3192 3194 3196 3198 3200 3201 3203 3205 3206 3206 3207 3207 3208 3209 3211 3213 3214 3216 3217 3219 3220 3222 3223 3225 3226 3227 3228 3229 3230 3230 3231 3232 3233 3233 3234 3235 3236 3236 3237 3237 3238 3239 3239 3240 3240 3240 3241 3242 3242 3243 3244 3244 3245 3246
3150 3151 3153 3154 3155 3156 3157 3159 3162 3162 3163 3164 3164 3164 3164 3163 3164 3166 3167 3169 3171 3173 3174 3176 3178 3180 3181 3182 3184 3186 3187 3189 3191 3193 3195 3197 3199 3200 3202 3203 3205 3206 3206 3207 3208 3209 3211 3213 3214 3215 3217 3218 3220 3221 3223 3224 3226 3227 3228 3229 3230 3231 3231 3232 3233 3234 3234 3235 3236 3237 3237 3238 3238 3239 3240 3240 3241 3241 3241 3242 3243 3243 3244 3245 3245 3246
3149 3151 3153 3153 3154 3155 3155 3157 3160 3161 3162 3163 3163 3163 3163 3162 3163 3164 3165 3167 3169 3170 3172 3174 3176 3178 3181 3182 3183 3185 3186 3188 3189 3191 3193 3195 3197 3199 3200 3202 3203 3205 3205 3206 3208 3209 3211 3212 3213 3214 3216 3218 3219 3221 3222 3223 3225 3226 3227 3228 3229 3230 3231 3232 3233 3234 3234 3235 3236 3237 3237 3238 3239 3240 3240 3241 3241 3242 3242 3243 3243 3244 3244 3245 3245 3246
3148 3150 3152 3152 3153 3154 3154 3156 3158 3159 3161 3162 3162 3162 3162 3162 3162 3163 3164 3165 3167 3168 3171 3174 3175 3177 3179 3180 3183 3184 3185 3186 3188 3189 3191 3193 3195 3197 3199 3201 3203 3204 3204 3205 3207 3208 3210 3212 3213 3214 3216 3217 3219 3220 3221 3222 3223 3225 3227 3228 3229 3230 3231 3232 3233 3234 3234 3235 3236 3237 3237 3238 3239 3240 3241 3241 3242 3242 3243 3243 3244 3244 3245 3245 3246 3246
3148 3150 3152 3152 3152 3152 3153 3155 3157 3159 3160 3161 3161 3161 3161 3162 3163 3164 3164 3165 3167 3169 3171 3173 3174 3177 3178 3180 3182 3183 3183 3184 3185 3187 3188 3191 3194 3196 3197 3200 3202 3203 3204 3204 3206 3207 3209 3211 3213 3214 3216 3217 3218 3219 3220 3221 3223 3224 3226 3227 3228 3230 3230 3231 3232 3233 3234 3235 3236 3236 3237 3238 3239 3239 3240 3241 3242 3243 3243 3244 3244 3245 3245 3246 3246 3247
3147 3149 3150 3151 3152 3152 3152 3154 3156 3157 3158 3159 3160 3161 3161 3162 3165 3166 3166 3167 3169 3170 3171 3172 3173 3176 3177 3178 3179 3179 3179 3180 3183 3185 3187 3189 3192 3194 3196 3198 3200 3202 3203 3204 3205 3206 3208 3210 3213 3214 3215 3216 3217 3219 3220 3221 3222 3223 3224 3226 3227 3229 3230 3231 3232 3232 3234 3235 3235 3236 3237 3238 3239 3239 3240 3241 3242 3243 3243 3244 3244 3245 3246 3246 3247 3247
3147 3147 3148 3149 3151 3151 3151 3152 3155 3155 3155 3157 3159 3160 3162 3164 3167 3168 3168 3168 3170 3171 3172 3172 3173 3175 3175 3174 3174 3175 3176 3179 3182 3184 3186 3188 3190 3193 3195 3197 3199 3201 3202 3203 3204 3205 3207 3209 3211 3213 3214 3215 3217 3218 3219 3220 3221 3222 3224 3225 3226 3228 3229 3230 3231 3232 3233 3234 3235 3236 3237 3238 3239 3240 3240 3241 3242 3243 3244 3244 3244 3245 3246 3246 3247 3247
3147 3146 3146 3148 3150 3150 3150 3151 3153 3154 3154 3156 3157 3158 3162 3166 3169 3170 3170 3169 3170 3171 3172 3172 3173 3175 3173 3171 3172 3174 3177 3179 3180 3182 3184 3186 3188 3191 3193 3195 3197 3199 3201 3202 3203 3204 3206 3208 3209 3211 3213 3214 3215 3216 3218 3219 3220 3221 3223 3224 3225 3227 3228 3229 3231 3232 3233 3234 3235 3236 3237 3238 3239 3240 3241 3241 3242 3243 3243 3244 3245 3245 3245 3246 3246 3246
3146 3145 3146 3146 3148 3150 3150 3151 3152 3153 3153 3155 3155 3156 3161 3167 3171 3172 3171 3170 3170 3170 3170 3170 3172 3173 3170 3169 3171 3173 3174 3177 3179 3181 3183 3185 3187 3190 3192 3194 3195 3198 3200 3201 3202 3202 3204 3205 3207 3209 3211 3213 3214 3215 3217 3218 3219 3221 3222 3223 3224 3226 3228 3229 3230 3231 3232 3233 3235 3236 3237 3238 3239 3240 3240 3241 3242 3243 3243 3244 3244 3245 3245 3245 3246 3246
3145 3145 3145 3146 3147 3149 3150 3150 3151 3152 3153 3154 3154 3155 3159 3165 3170 3173 3171 3170 3169 3168 3168 3168 3170 3170 3168 3168 3169 3170 3171 3174 3176 3179 3182 3184 3186 3188 3191 3192 3194 3196 3198 3199 3200 3201 3202 3204 3205 3207 3209 3211 3213 3214 3216 3218 3219 3220 3221 3222 3224 3225 3227 3228 3229 3231 3232 3233 3234 3235 3237 3238 3239 3239 3240 3241 3242 3242 3243 3243 3244 3244 3244 3245 3245 3245
3146 3145 3145 3145 3147 3148 3149 3149 3149 3150 3152 3153 3154 3154 3156 3160 3164 3167 3167 3167 3167 3167 3167 3168 3168 3167 3165 3165 3165 3167 3169 3170 3172 3175 3179 3182 3184 3187 3190 3191 3192 3194 3195 3197 3198 3199 3201 3202 3204 3206 3208 3209 3211 3213 3215 3217 3218 3219 3220 3222 3223 3224 3226 3227 3229 3230 3232 3233 3234 3235 3236 3237 3238 3239 3240 3241 3241 3242 3243 3243 3244 3244 3245 3245 3245 3245
3147 3145 3144 3144 3144 3146 3148 3150 3150 3150 3152 3153 3154 3154 3154 3156 3158 3160 3162 3163 3163 3165 3166 3166 3165 3163 3162 3163 3163 3164 3165 3166 3168 3171 3174 3178 3181 3184 3187 3189 3190 3191 3193 3195 3196 3198 3199 3201 3203 3204 3206 3208 3210 3211 3214 3216 3217 3218 3220 3221 3222 3224 3225 3227 3228 3229 3231 3232 3233 3234 3235 3236 3237 3238 3239 3240 3241 3241 3242 3243 3243 3244 3244 3245 3245 3245
3147 3144 3143 3143 3143 3144 3147 3149 3150 3150 3152 3154 3153 3152 3153 3155 3156 3157 3161 3162 3162 3163 3165 3164 3162 3161 3161 3160 3160 3162 3163 3164 3166 3168 3171 3174 3178 3180 3183 3185 3187 3189 3191 3193 3194 3196 3198 3199 3201 3203 3204 3206 3208 3210 3212 3215 3216 3218 3219 3220 3222 3223 3224 3226 3227 3228 3230 3231 3232 3233 3234 3235 3236 3237 3238 3239 3240 3241 3242 3243 3243 3243 3244 3244 3244 3244
3147 3144 3143 3143 3142 3143 3145 3148 3149 3150 3152 3153 3153 3152 3153 3155 3155 3156 3159 3162 3163 3164 3164 3162 3160 3160 3159 3158 3158 3159 3160 3162 3164 3167 3169 3172 3174 3177 3179 3182 3185 3187 3189 3191 3193 3194 3196 3197 3199 3201 3203 3204 3206 3208 3211 3214 3215 3217 3218 3220 3221 3222 3223 3225 3226 3227 3229 3230 3231 3232 3233 3234 3236 3237 3237 3238 3239 3240 3241 3242 3242 3243 3243 3244 3244 3244
3147 3145 3143 3143 3142 3141 3143 3146 3148 3149 3151 3152 3153 3154 3153 3154 3154 3154 3156 3160 3162 3164 3163 3160 3159 3158 3157 3156 3156 3157 3159 3161 3163 3165 3168 3170 3171 3173 3175 3178 3181 3184 3187 3189 3190 3192 3194 3195 3197 3199 3201 3203 3205 3207 3210 3212 3214 3216 3217 3219 3220 3222 3223 3224 3225 3226 3227 3228 3230 3231 3232 3233 3234 3235 3236 3237 3238 3239 3240 3241 3241 3242 3243 3243 3243 3243
3147 3146 3144 3142 3141 3142 3143 3145 3147 3148 3150 3151 3152 3153 3152 3152 3153 3153 3154 3155 3158 3162 3162 3160 3159 3156 3154 3155 3155 3156 3158 3160 3162 3163 3165 3168 3169 3171 3172 3175 3178 3181 3184 3185 3187 3189 3192 3194 3196 3198 3200 3202 3203 3205 3208 3210 3212 3214 3216 3217 3219 3220 3221 3222 3223 3225 3226 3227 3228 3229 3230 3231 3232 3234 3235 3236 3237 3238 3239 3240 3241 3241 3242 3242 3242 3243
3147 3147 3145 3142 3141 3143 3143 3144 3146 3147 3149 3149 3150 3151 3151 3152 3152 3153 3154 3153 3154 3157 3159 3160 3158 3155 3153 3154 3155 3155 3157 3159 3161 3162 3163 3165 3167 3168 3169 3173 3177 3179 3181 3183 3185 3188 3190 3192 3194 3196 3198 3200 3202 3204 3206 3208 3211 3213 3214 3215 3217 3219 3220 3221 3222 3223 3224 3226 3227 3228 3229 3230 3231 3232 3233 3235 3236 3237 3238 3239 3240 3240 3241 3241 3242 3242
3147 3146 3145 3142 3142 3143 3143 3144 3145 3145 3146 3147 3149 3150 3151 3151 3150 3151 3152 3152 3152 3153 3155 3157 3156 3154 3153 3154 3154 3155 3157 3158 3160 3161 3161 3163 3165 3167 3170 3173 3176 3179 3181 3184 3185 3187 3189 3190 3191 3194 3196 3197 3199 3201 3204 3206 3208 3210 3212 3214 3216 3217 3218 3219 3220 3222 3223 3224 3225 3226 3228 3229 3230 3231 3232 3233 3235 3236 3237 3238 3239 3239 3240 3240 3241 3241
3147 3146 3145 3143 3143 3143 3143 3144 3144 3144 3144 3146 3148 3149 3150 3150 3149 3149 3149 3150 3151 3152 3153 3154 3155 3153 3154 3154 3154 3155 3156 3158 3160 3160 3161 3163 3165 3169 3171 3174 3176 3179 3181 3184 3185 3186 3187 3188 3189 3191 3193 3195 3197 3199 3201 3204 3205 3208 3210 3212 3213 3215 3216 3217 3219 3220 3221 3222 3224 3225 3226 3227 3228 3230 3231 3232 3233 3235 3236 3237 3237 3238 3239 3239 3240 3240
3147 3146 3144 3143 3143 3143 3142 3143 3144 3144 3144 3145 3146 3146 3147 3148 3148 3148 3148 3148 3150 3151 3152 3154 3154 3153 3153 3154 3154 3154 3156 3157 3159 3160 3161 3163 3165 3168 3170 3172 3175 3178 3179 3182 3183 3183 3184 3184 3185 3189 3192 3193 3196 3198 3200 3202 3204 3206 3208 3209 3211 3212 3214 3216 3217 3218 3219 3220 3222 3223 3225 3226 3227 3228 3230 3231 3232 3233 3234 3235 3236 3237 3237 3238 3239 3239
3147 3147 3146 3144 3145 3144 3144 3144 3144 3143 3143 3144 3145 3145 3145 3145 3145 3146 3147 3148 3148 3149 3150 3152 3152 3151 3151 3153 3153 3154 3155 3156 3158 3159 3161 3163 3164 3166 3168 3170 3173 3175 3177 3179 3180 3180 3181 3181 3182 3186 3190 3192 3194 3196 3198 3200 3202 3204 3206 3207 3209 3210 3212 3213 3214 3216 3217 3219 3220 3222 3223 3225 3226 3228 3229 3230 3231 3232 3233 3234 3234 3235 3236 3237 3237 3238
3147 3147 3147 3148 3149 3150 3149 3148 3147 3146 3145 3145 3145 3144 3144 3144 3143 3144 3146 3146 3146 3147 3148 3149 3149 3149 3150 3151 3152 3153 3154 3156 3158 3159 3160 3162 3163 3165 3167 3169 3171 3172 3174 3176 3177 3179 3181 3182 3182 3183 3187 3191 3193 3195 3197 3198 3200 3202 3204 3206 3207 3208 3210 3211 3213 3214 3215 3217 3218 3220 3222 3224 3225 3226 3228 3229 3230 3231 3231 3232 3233 3233 3234 3235 3236 3236
3147 3147 3148 3150 3151 3151 3151 3150 3149 3148 3147 3146 3145 3144 3144 3144 3143 3143 3144 3145 3145 3146 3147 3147 3148 3148 3149 3150 3151 3152 3154 3156 3158 3159 3160 3161 3162 3164 3166 3167 3169 3170 3171 3173 3174 3175 3177 3180 3182 3183 3184 3186 3189 3191 3195 3197 3199 3200 3202 3204 3205 3206 3207 3208 3209 3211 3213 3215 3217 3218 3220 3222 3223 3225 3226 3227 3228 3229 3230 3230 3231 3232 3232 3233 3233 3234
3147 3148 3149 3150 3151 3151 3149 3148 3149 3148 3147 3146 3145 3144 3144 3143 3142 3142 3142 3143 3144 3144 3145 3145 3147 3148 3148 3149 3151 3152 3154 3156 3157 3158 3159 3160 3161 3163 3164 3166 3167 3168 3169 3170 3171 3172 3173 3174 3178 3182 3184 3185 3185 3186 3188 3190 3192 3194 3196 3197 3198 3199 3201 3203 3206 3208 3211 3213 3215 3217 3218 3220 3222 3223 3224 3226 3227 3228 3228 3229 3229 3230 3231 3231 3232 3232
3147 3148 3149 3150 3151 3151 3149 3148 3150 3149 3146 3146 3145 3144 3144 3143 3142 3142 3141 3141 3142 3142 3143 3143 3145 3146 3147 3150 3151 3153 3154 3156 3157 3157 3158 3159 3161 3162 3163 3164 3165 3166 3167 3168 3168 3169 3170 3171 3173 3177 3182 3184 3185 3185 3184 3185 3186 3188 3190 3192 3195 3197 3200 3203 3207 3209 3209 3210 3212 3215 3217 3219 3220 3221 3222 3224 3225 3226 3227 3227 3227 3228 3229 3229 3230 3230
3147 3148 3148 3148 3150 3150 3149 3149 3151 3150 3146 3145 3145 3145 3145 3143 3142 3142 3141 3141 3141 3141 3141 3141 3142 3144 3147 3149 3151 3153 3154 3155 3156 3157 3157 3158 3160 3161 3162 3162 3163 3164 3165 3166 3167 3166 3167 3168 3170 3173 3177 3181 3184 3186 3187 3188 3190 3192 3194 3196 3199 3202 3205 3207 3207 3207 3208 3209 3211 3214 3216 3218 3219 3220 3221 3222 3223 3224 3225 3225 3225 3226 3227 3227 3228 3228
3147 3147 3147 3147 3148 3149 3149 3150 3152 3150 3147 3146 3145 3145 3145 3144 3144 3143 3142 3140 3139 3139 3140 3141 3142 3144 3146 3149 3152 3153 3154 3155 3156 3156 3157 3158 3159 3160 3161 3161 3161 3162 3163 3164 3165 3165 3165 3166 3168 3170 3175 3178 3181 3184 3188 3190 3191 3193 3195 3197 3201 3204 3206 3207 3206 3206 3208 3211 3212 3213 3215 3216 3218 3219 3220 3221 3222 3223 3223 3224 3224 3224 3225 3226 3226 3226
3147 3146 3146 3146 3147 3148 3148 3149 3151 3150 3147 3146 3145 3145 3145 3145 3144 3144 3143 3141 3138 3139 3140 3141 3142 3144 3146 3149 3152 3153 3153 3154 3155 3156 3156 3157 3159 3160 3161 3161 3161 3162 3162 3162 3163 3164 3164 3165 3167 3169 3173 3176 3179 3182 3185 3188 3190 3191 3192 3194 3198 3202 3204 3205 3206 3208 3210 3212 3212 3213 3214 3215 3216 3217 3218 3219 3220 3221 3221 3222 3222 3222 3223 3224 3224 3224
3147 3146 3146 3146 3147 3148 3148 3148 3148 3148 3148 3148 3147 3147 3147 3146 3145 3146 3145 3143 3141 3140 3142 3143 3144 3145 3146 3148 3151 3152 3153 3154 3155 3156 3156 3157 3158 3159 3160 3161 3162 3162 3162 3162 3163 3163 3164 3165 3167 3169 3172 3175 3177 3179 3183 3187 3189 3190 3191 3193 3196 3200 3202 3203 3205 3207 3209 3210 3210 3211 3212 3213 3214 3215 3216 3216 3217 3218 3219 3220 3220 3220 3221 3221 3221 3222
3146 3146 3145 3146 3146 3147 3147 3147 3146 3148 3150 3151 3150 3149 3149 3148 3147 3147 3146 3145 3144 3144 3144 3145 3146 3147 3148 3149 3150 3152 3154 3155 3156 3156 3157 3157 3158 3158 3159 3160 3161 3161 3162 3162 3162 3163 3164 3165 3167 3168 3171 3173 3175 3178 3181 3184 3186 3187 3189 3191 3194 3197 3200 3201 3202 3204 3206 3208 3209 3210 3211 3211 3212 3213 3214 3214 3215 3216 3216 3217 3217 3218 3218 3219 3219 3220
3146 3145 3145 3145 3146 3146 3146 3146 3147 3149 3151 3152 3151 3149 3149 3149 3149 3148 3146 3145 3145 3146 3147 3147 3147 3148 3148 3149 3151 3153 3155 3156 3156 3156 3156 3157 3157 3157 3158 3159 3160 3160 3161 3162 3163 3163 3164 3166 3168 3169 3171 3173 3174 3176 3178 3179 3182 3184 3186 3189 3191 3194 3197 3199 3200 3202 3204 3206 3208 3209 3209 3209 3210 3211 3212 3212 3213 3213 3213 3213 3213 3214 3215 3216 3216 3217
3145 3145 3145 3145 3145 3145 3146 3146 3147 3148 3150 3151 3151 3149 3149 3149 3149 3148 3147 3145 3146 3146 3148 3149 3149 3149 3150 3151 3152 3153 3155 3156 3157 3156 3156 3156 3156 3156 3157 3158 3159 3160 3161 3163 3164 3166 3167 3169 3171 3172 3174 3174 3175 3176 3176 3177 3180 3184 3187 3189 3190 3191 3194 3197 3198 3200 3202 3204 3205 3206 3207 3207 3208 3209 3209 3210 3210 3209 3208 3207 3207 3208 3210 3211 3212 3213
3145 3145 3144 3144 3144 3144 3145 3145 3146 3148 3149 3150 3149 3148 3148 3148 3148 3148 3146 3145 3146 3147 3148 3149 3150 3151 3152 3153 3152 3152 3154 3155 3156 3156 3156 3156 3156 3157 3158 3159 3160 3162 3163 3164 3166 3168 3170 3172 3173 3174 3175 3175 3176 3176 3177 3177 3179 3182 3185 3187 3189 3190 3192 3195 3196 3197 3199 3200 3202 3203 3204 3204 3205 3206 3206 3207 3206 3206 3204 3202 3202 3204 3205 3206 3208 3209
3144 3144 3143 3143 3143 3143 3144 3145 3146 3147 3148 3148 3147 3147 3146 3146 3146 3146 3145 3145 3146 3147 3148 3150 3151 3151 3152 3153 3152 3152 3153 3155 3156 3156 3156 3156 3157 3158 3160 3161 3162 3163 3165 3165 3166 3168 3170 3171 3172 3174 3175 3176 3176 3177 3177 3178 3179 3181 3183 3185 3187 3188 3190 3192 3193 3194 3195 3197 3198 3199 3200 3201 3201 3202 3202 3202 3202 3202 3202 3201 3201 3201 3202 3203 3204 3204
3143 3143 3142 3142 3142 3142 3143 3143 3143 3144 3145 3145 3145 3145 3145 3144 3145 3145 3144 3144 3145 3147 3148 3150 3151 3152 3152 3152 3153 3153 3153 3154 3155 3155 3156 3158 3158 3159 3161 3162 3163 3164 3166 3167 3167 3168 3170 3171 3172 3173 3174 3175 3176 3177 3178 3178 3179 3181 3182 3183 3184 3186 3188 3189 3191 3192 3193 3194 3195 3196 3196 3196 3197 3197 3197 3198 3198 3198 3198 3198 3198 3199 3199 3199 3198 3198
3141 3141 3141 3142 3142 3142 3142 3142 3141 3142 3142 3143 3143 3144 3144 3144 3144 3145 3145 3145 3145 3147 3148 3149 3150 3152 3153 3153 3153 3154 3153 3154 3155 3155 3156 3158 3159 3160 3162 3163 3164 3165 3166 3167 3168 3169 3171 3172 3173 3174 3174 3174 3175 3176 3177 3178 3179 3180 3181 3181 3183 3184 3186 3187 3188 3189 3190 3191 3191 3191 3191 3191 3192 3192 3193 3194 3194 3194 3195 3195 3195 3196 3195 3194 3193 3193
3140 3141 3141 3141 3141 3142 3142 3141 3141 3141 3141 3141 3142 3143 3144 3144 3144 3145 3145 3145 3146 3147 3148 3149 3150 3153 3155 3155 3154 3155 3154 3154 3155 3155 3155 3157 3158 3160 3162 3163 3165 3166 3166 3167 3168 3169 3171 3172 3172 3173 3173 3174 3175 3176 3177 3178 3178 3179 3180 3181 3182 3182 3183 3184 3185 3186 3187 3187 3188 3188 3188 3187 3188 3188 3189 3190 3190 3191 3191 3191 3192 3192 3192 3191 3190 3190
3139 3140 3140 3140 3141 3141 3141 3141 3141 3140 3140 3140 3140 3141 3142 3143 3144 3145 3145 3146 3147 3148 3149 3150 3151 3153 3155 3155 3156 3157 3156 3155 3154 3155 3155 3156 3157 3159 3161 3162 3164 3165 3166 3167 3168 3169 3170 3170 3171 3172 3172 3173 3175 3175 3176 3177 3177 3178 3179 3180 3180 3180 3181 3182 3183 3183 3184 3185 3185 3185 3185 3185 3185 3185 3186 3186 3187 3188 3188 3188 3189 3189 3189 3189 3188 3188
3138 3139 3139 3139 3140 3140 3140 3140 3140 3140 3139 3139 3140 3140 3141 3142 3144 3145 3146 3147 3148 3149 3150 3151 3152 3153 3155 3156 3157 3158 3157 3155 3155 3155 3156 3156 3157 3159 3160 3161 3163 3164 3165 3166 3167 3168 3168 3169 3169 3170 3171 3172 3174 3174 3175 3176 3177 3177 3177 3178 3178 3179 3179 3180 3181 3181 3182 3183 3183 3183 3183 3183 3184 3184 3184 3184 3185 3185 3185 3186 3186 3186 3186 3186 3186 3186
3138 3138 3138 3138 3139 3139 3139 3139 3139 3138 3138 3139 3140 3141 3142 3143 3144 3145 3147 3148 3148 3150 3151 3152 3153 3154 3155 3156 3157 3157 3157 3156 3156 3156 3157 3157 3158 3159 3160 3161 3162 3163 3164 3166 3166 3167 3167 3168 3169 3170 3170 3171 3172 3173 3174 3175 3176 3176 3176 3177 3177 3178 3178 3179 3179 3180 3180 3180 3181 3182 3182 3182 3182 3182 3183 3183 3183 3183 3183 3183 3183 3183 3183 3184 3184 3183
3137 3137 3137 3137 3138 3138 3139 3138 3138 3138 3138 3139 3141 3142 3143 3143 3144 3145 3147 3148 3149 3150 3152 3153 3154 3154 3155 3156 3157 3157 3157 3157 3157 3157 3158 3158 3159 3160 3161 3161 3162 3163 3164 3165 3166 3166 3167 3168 3168 3169 3170 3170 3171 3172 3173 3173 3174 3175 3175 3176 3176 3177 3177 3177 3177 3178 3178 3179 3179 3180 3180 3181 3181 3181 3181 3180 3180 3180 3180 3180 3180 3181 3181 3181 3181 3181
3136 3137 3137 3137 3137 3138 3139 3139 3139 3138 3139 3140 3142 3143 3144 3144 3145 3146 3147 3148 3150 3151 3152 3153 3154 3154 3155 3155 3156 3156 3156 3157 3157 3158 3159 3159 3160 3160 3161 3162 3163 3163 3163 3164 3165 3166 3167 3168 3168 3169 3169 3170 3170 3171 3172 3173 3173 3174 3174 3175 3176 3176 3176 3176 3176 3176 3177 3177 3178 3178 3179 3179 3179 3179 3179 3179 3179 3179 3179 3179 3179 3179 3179 3179 3179 3179
3136 3136 3136 3137 3137 3137 3138 3140 3140 3140 3140 3141 3142 3143 3144 3144 3145 3146 3147 3149 3150 3151 3152 3153 3154 3154 3154 3155 3155 3155 3155 3156 3157 3157 3158 3159 3160 3160 3161 3162 3163 3163 3164 3164 3164 3165 3166 3167 3168 3168 3169 3169 3170 3170 3171 3172 3172 3173 3173 3174 3174 3175 3175 3175 3175 3175 3176 3177 3177 3178 3178 3178 3178 3178 3178 3178 3178 3178 3177 3178 3177 3177 3177 3177 3177 3177
3135 3136 3137 3137 3138 3138 3139 3140 3141 3141 3141 3142 3143 3144 3144 3145 3145 3146 3147 3148 3149 3150 3151 3152 3153 3153 3154 3154 3154 3154 3154 3155 3156 3157 3157 3158 3159 3160 3161 3161 3162 3163 3164 3164 3165 3165 3166 3167 3167 3168 3169 3169 3169 3170 3170 3171 3171 3172 3172 3173 3173 3174 3174 3175 3175 3175 3176 3176 3177 3177 3178 3178 3178 3178 3178 3177 3177 3176 3176 3177 3176 3176 3176 3175 3175 3175
3135 3136 3137 3137 3138 3138 3139 3139 3140 3141 3142 3143 3143 3144 3144 3145 3146 3146 3147 3148 3149 3150 3151 3152 3152 3153 3153 3153 3153 3154 3154 3155 3156 3156 3157 3158 3159 3160 3160 3161 3161 3162 3163 3164 3164 3165 3166 3166 3167 3168 3168 3169 3169 3170 3170 3170 3171 3171 3171 3172 3173 3173 3174 3174 3174 3175 3175 3175 3175 3176 3177 3177 3177 3177 3177 3176 3176 3175 3175 3175 3175 3175 3174 3174 3174 3174
3135 3136 3136 3137 3138 3138 3138 3138 3139 3140 3141 3142 3143 3144 3145 3145 3146 3147 3147 3148 3149 3150 3151 3151 3152 3152 3152 3153 3153 3153 3154 3154 3155 3156 3157 3157 3158 3158 3159 3160 3161 3162 3162 3163 3164 3164 3165 3166 3167 3167 3168 3168 3169 3169 3170 3170 3170 3170 3171 3171 3172 3172 3173 3173 3173 3174 3174 3174 3174 3174 3175 3176 3176 3176 3176 3175 3175 3175 3174 3174 3174 3173 3173 3173 3173 3173
3134 3135 3136 3137 3137 3137 3138 3139 3140 3141 3141 3142 3143 3144 3145 3145 3146 3147 3147 3148 3148 3149 3150 3151 3151 3152 3152 3153 3153 3153 3154 3154 3155 3155 3156 3156 3157 3158 3158 3159 3160 3161 3161 3162 3163 3163 3164 3165 3166 3166 3167 3167 3168 3168 3169 3169 3169 3170 3170 3170 3170 3171 3171 3172 3172 3172 3172 3172 3172 3172 3172 3173 3173 3173 3173 3173 3173 3173 3173 3173 3172 3172 3172 3171 3171 3171